FW1161 Weather Reports


Display with metric or nautical units.
time (UTC)temp
F
wind
direction
speed
MPH
gust
MPH
rain 1hr
in
rain 24hr
in
rain mn
in
humidity
%
barometer
mb
20260509024531 62 292 0.0 2.0 0.00 0.00 0.00 52 1005.1
20260509023106 62 292 0.0 0.0 0.00 0.00 0.00 52 1005.2
20260509021527 62 292 0.0 0.0 0.00 0.00 0.00 50 1005.1
20260509020054 62 293 0.0 3.0 0.00 0.00 0.00 49 1005.0
20260509014513 61 293 0.0 2.0 0.00 0.00 0.00 51 1004.9
20260509013038 60 293 0.0 0.0 0.00 0.00 0.00 54 1004.8
20260509011602 60 292 0.0 0.0 0.00 0.00 0.00 53 1004.7
20260509010029 61 293 0.0 0.0 0.00 0.00 0.00 53 1004.5
20260509004543 61 292 0.0 0.0 0.00 0.00 0.00 53 1004.0
20260509003107 61 293 0.0 0.0 0.00 0.00 0.00 52 1003.7
20260509001531 62 293 0.0 0.0 0.00 0.00 0.00 50 1003.7
20260509000104 62 292 0.0 0.0 0.00 0.00 0.00 48 1003.7
20260508234510 63 292 0.0 0.0 0.00 0.00 0.00 46 1003.6
20260508233030 64 292 0.0 1.0 0.00 0.00 0.00 44 1003.5
20260508231554 64 293 0.0 0.0 0.00 0.00 0.00 44 1003.3
20260508230010 64 292 1.0 4.0 0.00 0.00 0.00 43 1003.3
20260508224533 64 292 1.0 5.0 0.00 0.00 0.00 43 1003.1
20260508223047 64 294 1.0 6.0 0.00 0.00 0.00 42 1003.3
20260508221513 65 281 3.0 8.0 0.00 0.00 0.00 41 1003.2
20260508220040 65 333 2.0 13.0 0.00 0.00 0.00 40 1003.3
20260508214618 66 302 3.0 15.0 0.00 0.00 0.00 39 1003.3
20260508213021 67 306 4.0 9.0 0.00 0.00 0.00 39 1003.2
20260508211532 66 299 4.0 15.0 0.00 0.00 0.00 39 1003.2
20260508210100 65 332 7.0 18.0 0.00 0.00 0.00 39 1003.5
20260508204524 65 323 3.0 11.0 0.00 0.00 0.00 41 1003.4
20260508203054 66 277 5.0 12.0 0.00 0.00 0.00 39 1003.5
20260508201526 65 308 6.0 17.0 0.00 0.00 0.00 39 1003.6
20260508200050 65 273 4.0 16.0 0.00 0.00 0.00 40 1003.6
20260508194509 64 311 6.0 15.0 0.00 0.00 0.00 39 1003.7
20260508193034 65 306 7.0 20.0 0.00 0.00 0.00 38 1003.7
20260508191503 64 326 8.0 22.0 0.00 0.00 0.00 40 1003.8
20260508190035 65 285 6.0 17.0 0.00 0.00 0.00 39 1003.8
20260508184556 65 311 10.0 21.0 0.00 0.00 0.00 37 1003.8
20260508183005 65 251 6.0 11.0 0.00 0.00 0.00 39 1004.0
20260508181537 64 261 7.0 17.0 0.00 0.00 0.00 38 1004.2
20260508180057 63 294 7.0 14.0 0.00 0.00 0.00 40 1004.4
20260508174516 62 309 5.0 10.0 0.00 0.00 0.00 40 1004.6
20260508173039 63 276 3.0 17.0 0.00 0.00 0.00 42 1004.7
20260508171547 63 315 7.0 14.0 0.00 0.00 0.00 42 1004.8
20260508170029 62 315 8.0 20.0 0.00 0.00 0.00 41 1004.8
20260508164543 62 315 7.0 16.0 0.00 0.00 0.00 43 1004.7
20260508163105 61 274 5.0 16.0 0.00 0.00 0.00 43 1005.1
20260508161530 61 287 5.0 11.0 0.00 0.00 0.00 44 1005.5
20260508160037 60 261 6.0 14.0 0.00 0.00 0.00 45 1005.7
20260508154552 60 304 9.0 22.0 0.00 0.00 0.00 42 1006.0
20260508153101 60 318 7.0 12.0 0.00 0.00 0.00 41 1006.0
20260508151506 60 249 1.0 11.0 0.00 0.00 0.00 45 1006.1
20260508150033 58 322 4.0 12.0 0.00 0.00 0.00 45 1006.2
20260508144553 58 259 2.0 9.0 0.00 0.00 0.00 47 1006.2
20260508143021 58 296 5.0 9.0 0.00 0.00 0.00 46 1006.3
20260508141541 57 273 0.0 9.0 0.00 0.00 0.00 50 1006.3
20260508140058 56 318 2.0 5.0 0.00 0.00 0.00 52 1006.4
20260508134519 55 296 2.0 7.0 0.00 0.00 0.00 52 1006.4
20260508133050 55 301 1.0 5.0 0.00 0.00 0.00 56 1006.4
20260508131545 55 288 1.0 6.0 0.00 0.00 0.00 58 1006.5
20260508130001 53 313 1.0 11.0 0.00 0.00 0.00 61 1006.7
20260508124527 53 306 2.0 10.0 0.00 0.00 0.00 66 1006.6
20260508123110 52 324 2.0 6.0 0.00 0.00 0.00 69 1006.7
20260508121527 51 299 2.0 7.0 0.00 0.00 0.00 71 1006.5
20260508120159 50 305 1.0 6.0 0.00 0.00 0.00 74 1006.2
20260508114524 49 289 2.0 5.0 0.00 0.00 0.00 77 1006.1
20260508113050 48 290 0.0 4.0 0.00 0.00 0.00 79 1006.3
20260508111522 47 294 0.0 3.0 0.00 0.00 0.00 81 1006.3
20260508110056 47 296 0.0 3.0 0.00 0.00 0.00 82 1006.1
20260508104510 46 296 0.0 0.0 0.00 0.00 0.00 83 1005.9
20260508103034 45 296 0.0 0.0 0.00 0.00 0.00 85 1005.9
20260508101559 44 296 0.0 0.0 0.00 0.00 0.00 87 1005.7
20260508100025 43 296 0.0 0.0 0.00 0.00 0.00 85 1005.4
20260508094545 44 296 0.0 0.0 0.00 0.00 0.00 85 1005.4
20260508093002 44 296 0.0 0.0 0.00 0.00 0.00 83 1005.4
20260508091533 44 296 0.0 0.0 0.00 0.00 0.00 81 1005.3
20260508090110 45 296 0.0 0.0 0.00 0.00 0.00 80 1005.1
20260508084526 46 296 0.0 0.0 0.00 0.02 0.00 78 1005.0
20260508083042 47 296 0.0 0.0 0.00 0.02 0.00 76 1004.8
20260508081634 48 292 0.0 2.0 0.00 0.02 0.00 75 1004.6
20260508080015 49 304 0.0 5.0 0.00 0.02 0.00 73 1004.2
20260508074540 49 299 0.0 5.0 0.00 0.07 0.00 73 1004.1
20260508073006 50 301 1.0 8.0 0.00 0.07 0.00 72 1004.0
20260508071527 50 313 1.0 4.0 0.00 0.07 0.00 70 1003.6
20260508070140 51 301 0.0 8.0 0.00 0.07 0.00 68 1003.4
20260508064511 52 307 1.0 7.0 0.00 0.14 0.00 67 1003.2
20260508063033 52 299 2.0 8.0 0.00 0.14 0.00 67 1003.2
20260508061551 52 281 0.0 5.0 0.00 0.14 0.00 67 1002.3
20260508060007 53 293 0.0 4.0 0.00 0.14 0.00 71 1002.2
20260508054538 53 292 0.0 3.0 0.00 0.21 0.00 69 1002.2
20260508053105 54 292 1.0 2.0 0.00 0.21 0.00 67 1002.1
20260508051530 54 299 0.0 2.0 0.00 0.21 0.00 67 1002.0
20260508050041 53 299 0.0 1.0 0.00 0.21 0.00 67 1001.9
20260508044510 54 299 0.0 3.0 0.00 0.21 0.00 64 1001.8
20260508043044 54 299 0.0 0.0 0.00 0.21 0.00 64 1001.8
20260508041505 53 299 0.0 0.0 0.00 0.21 0.00 64 1001.8
20260508040019 53 299 0.0 0.0 0.00 0.21 0.00 70 1001.8
20260508034549 52 299 0.0 0.0 0.00 0.21 0.21 70 1001.4
20260508033005 52 299 0.0 0.0 0.00 0.21 0.21 69 1001.4
20260508031523 52 299 0.0 0.0 0.00 0.21 0.21 69 1001.4